Wind_Speed
8 7 7 7 7 6 6 6 6 7 8 10 12 13 13 13 12 14 15 15 11 8 9 6 4 7 7 13 21 21 16 17 18 16 16 14 14 14 3 4 9 7 15 19 18
7 6 6 6 7 7 7 6 6 6 7 9 10 13 13 12 12 12 17 17 13 8 9 5 8 11 6 15 25 13 21 18 22 20 18 20 17 20 12 10 13 21 20 19 15
7 7 6 6 6 7 7 7 6 6 6 8 9 10 13 12 12 14 15 17 16 13 14 13 11 10 14 16 13 9 9 13 17 21 19 21 21 18 15 8 8 8 19 14 13
8 7 7 7 6 6 6 6 7 6 5 6 8 9 12 13 8 14 15 17 19 17 17 15 14 10 13 8 7 10 8 22 14 16 18 23 25 21 15 6 11 10 10 12 14
7 7 6 6 6 6 6 6 7 6 6 5 6 7 10 12 12 12 16 16 18 18 19 16 14 8 6 3 4 7 15 16 19 26 19 19 23 25 16 11 14 12 14 12 15
8 7 6 6 6 6 6 7 7 6 6 5 5 5 9 12 16 10 16 17 19 19 20 20 15 10 6 7 4 4 14 16 22 26 20 17 16 29 18 19 14 12 12 13 11
8 7 6 5 5 5 6 6 6 6 5 4 4 3 6 12 16 18 8 17 19 20 21 21 18 12 4 1 5 8 15 19 28 19 13 18 16 24 22 22 18 15 10 13 10
8 6 5 4 4 4 5 6 7 6 4 4 3 1 5 10 10 11 16 12 18 21 22 23 17 13 8 4 3 3 10 15 33 25 19 20 25 28 24 23 22 18 13 12 8
7 6 4 4 3 2 4 7 9 7 6 7 7 10 9 3 1 8 11 10 16 18 22 25 20 16 11 5 6 6 6 15 10 31 21 20 25 32 23 23 26 21 15 13 12
7 5 4 2 1 2 4 6 7 10 4 8 10 11 7 4 3 7 12 14 16 18 23 23 19 17 16 13 8 8 9 6 19 9 16 25 21 37 23 32 31 23 20 18 15
5 4 2 1 1 2 2 4 5 9 5 1 8 7 4 4 3 7 12 13 19 21 26 21 19 22 18 13 11 2 4 14 15 14 8 24 26 28 29 30 32 30 26 21 17
4 2 1 0 1 3 2 2 9 10 10 4 7 6 7 9 8 7 14 18 20 23 23 18 23 24 17 13 12 8 12 12 7 5 7 6 16 25 34 39 34 33 29 24 23
4 1 1 1 4 9 7 5 9 11 11 13 3 2 4 5 6 2 15 14 17 21 19 17 21 22 14 13 8 6 7 8 7 10 9 3 6 11 25 36 33 31 29 27 26
4 2 2 3 6 9 8 5 7 9 5 9 6 3 2 5 6 2 16 14 12 16 15 15 19 13 9 11 11 6 3 4 6 8 4 15 10 23 24 35 24 30 30 27 28
4 2 3 4 7 8 7 4 7 5 3 5 6 6 4 3 6 5 2 16 11 10 14 9 6 8 9 15 18 2 6 2 1 7 5 12 4 9 27 38 37 30 35 29 31
3 3 3 5 4 12 7 6 5 2 3 4 2 3 2 3 7 4 5 7 7 9 13 14 13 10 9 3 17 12 5 9 5 4 3 7 10 5 27 30 39 36 37 34 33
1 2 4 7 12 10 6 6 5 2 3 3 2 6 4 6 10 0 6 7 9 5 5 6 12 15 10 12 24 24 16 5 3 2 4 8 8 6 6 11 17 36 38 32 33
2 5 8 14 12 8 9 9 5 6 9 2 3 5 4 3 3 2 6 12 12 13 10 3 5 8 12 15 25 21 12 10 1 3 2 8 7 4 6 8 11 20 31 35 33
3 7 10 14 13 9 8 7 7 5 1 2 5 6 2 8 6 7 7 10 9 10 7 2 0 2 3 19 28 19 9 17 4 13 2 4 5 7 3 6 9 16 18 31 35
5 11 17 13 8 6 8 10 8 3 3 2 3 3 3 5 4 2 3 15 3 9 10 9 4 3 3 14 23 20 18 15 12 3 3 3 3 4 7 3 10 14 9 10 19
9 20 16 9 4 4 8 11 12 4 2 6 5 3 1 5 6 2 1 11 15 6 4 10 6 0 6 10 19 17 21 10 19 11 5 3 6 9 8 10 7 9 7 5 17
13 20 16 8 3 1 7 10 7 10 7 5 9 0 2 2 7 4 3 7 15 12 5 4 4 3 3 4 10 9 10 15 6 5 4 2 5 16 14 14 9 8 4 13 17
15 19 14 10 6 1 7 10 2 1 4 5 4 2 1 3 4 4 5 9 9 10 9 2 5 2 8 13 10 11 11 7 9 4 5 5 3 12 13 11 9 10 13 11 12
14 13 13 8 5 6 8 5 5 4 1 1 4 6 3 3 3 3 5 6 5 7 5 4 12 11 9 7 9 9 9 10 7 5 5 4 10 14 6 4 8 8 4 3 6
13 12 12 6 2 7 7 5 9 5 4 3 4 5 5 3 1 2 3 3 2 5 2 6 11 9 15 11 13 13 9 4 7 5 6 5 14 19 9 6 5 4 5 4 5
16 14 13 4 4 6 8 11 13 9 6 4 3 5 5 4 4 8 7 7 2 7 5 5 6 9 9 7 13 19 10 11 11 7 10 17 19 12 7 3 6 5 3 3 9
19 16 12 8 2 7 5 15 13 10 6 3 3 2 2 3 6 3 3 7 5 4 6 5 4 3 7 2 3 4 10 15 14 13 11 13 11 9 5 5 3 2 3 6 9
Wind_Direction
324 324 325 326 327 324 318 306 285 266 260 242 229 227 221 218 212 210 210 204 202 201 209 225 199 142 149 165 166 163 153 154 151 164 156 160 175 168 120 150 116 147 152 117 118
325 321 321 323 323 326 325 319 304 280 261 254 240 226 226 217 212 209 209 204 196 191 191 189 154 134 148 161 158 155 162 165 159 157 153 183 195 175 166 130 130 142 132 115 113
332 332 332 329 328 328 328 323 315 301 274 255 246 233 223 219 209 211 207 205 190 182 182 181 173 152 150 163 185 173 188 174 163 177 171 166 182 186 191 141 85 140 145 127 122
339 338 338 333 333 331 328 324 319 311 293 269 250 235 222 209 202 211 207 205 193 184 185 199 184 139 102 170 188 174 228 186 233 181 167 171 184 194 194 115 106 113 126 121 121
345 342 343 340 339 338 332 328 320 314 304 288 257 235 221 202 199 203 204 203 199 187 186 201 178 143 87 74 239 264 225 225 200 188 176 186 190 205 197 169 138 146 151 140 130
356 351 352 352 350 347 344 339 333 324 317 306 285 236 215 199 199 188 202 200 198 187 184 194 173 160 101 343 288 295 234 242 197 171 191 199 201 203 192 177 161 148 148 164 128
3 359 357 359 3 2 1 360 354 346 341 329 320 276 209 200 205 198 193 204 197 187 186 187 178 168 152 293 2 281 235 217 192 185 181 185 196 187 183 176 175 161 143 142 146
10 5 0 7 16 19 18 24 17 22 30 25 55 71 180 226 222 208 201 203 201 189 187 179 180 178 150 130 313 265 182 183 191 196 197 200 185 193 185 191 179 177 169 169 159
8 9 10 17 30 63 37 25 21 21 60 84 92 108 102 121 147 203 195 195 197 184 187 183 192 183 180 164 192 189 204 196 201 196 185 190 186 188 182 181 184 185 183 187 193
4 7 12 13 75 97 47 29 21 11 53 98 104 105 118 122 223 214 186 192 179 177 181 185 196 194 196 195 212 214 192 262 262 224 219 200 207 185 178 178 191 194 198 202 206
4 6 14 6 159 182 22 352 15 39 22 38 120 110 87 106 122 202 181 184 173 173 177 185 202 199 204 212 223 0 270 252 265 238 260 210 211 193 180 188 187 199 207 208 204
354 354 23 49 142 152 80 21 58 48 56 66 107 96 97 57 47 151 165 172 176 173 177 189 207 201 217 225 231 223 292 244 231 223 3 330 205 179 183 185 195 199 207 209 207
330 315 134 151 119 132 137 72 72 59 74 74 131 208 149 40 23 351 181 172 185 178 187 201 203 210 227 235 203 298 277 295 234 188 192 177 196 202 211 182 195 205 210 218 210
318 265 176 169 139 144 134 94 66 64 89 59 54 102 27 47 29 333 195 181 191 198 199 223 217 196 208 203 186 257 125 261 236 200 190 181 191 228 214 200 208 213 215 219 213
310 225 191 171 158 145 125 87 57 52 51 8 42 102 85 60 61 357 176 204 204 183 192 195 196 220 241 184 198 195 187 230 270 226 246 199 215 205 210 211 206 208 218 216 216
300 199 175 168 158 140 115 76 53 34 38 18 320 25 60 3 358 349 162 194 223 231 236 254 234 220 208 238 211 211 230 109 97 197 299 230 208 248 210 214 214 209 222 220 217
246 150 147 159 148 142 88 106 87 54 331 0 115 103 47 9 353 336 208 226 227 249 267 273 237 214 237 189 212 190 177 55 14 10 238 215 224 256 167 211 225 223 213 212 209
169 136 145 134 137 126 113 81 73 55 90 26 159 205 236 249 179 172 242 255 243 246 293 325 161 218 213 210 183 185 207 129 134 211 248 212 245 262 238 243 216 217 223 219 217
142 149 157 136 121 112 96 102 75 70 58 256 208 230 59 241 196 210 300 269 244 243 248 281 309 229 64 206 183 174 162 181 326 280 242 221 288 312 322 140 181 202 208 225 227
143 147 144 140 128 106 84 44 45 339 207 180 337 202 121 31 208 97 115 51 61 272 278 260 293 272 207 181 194 206 164 138 204 296 255 199 154 332 167 170 141 173 203 227 225
151 149 138 140 144 98 71 46 28 102 160 24 2 201 57 24 115 155 8 38 51 42 271 217 193 283 235 206 198 184 190 181 183 216 183 150 237 195 214 239 248 194 172 212 230
160 158 160 166 185 101 27 19 10 67 114 91 61 253 339 360 65 134 206 64 49 33 79 191 169 239 137 141 199 201 168 217 205 194 209 265 212 215 227 229 256 214 240 313 240
174 171 176 189 168 105 6 6 41 169 118 140 86 31 193 291 31 61 95 194 38 37 23 29 82 142 134 103 124 80 78 140 186 220 231 171 220 207 206 218 234 237 296 318 188
189 189 194 203 213 291 322 63 112 123 195 155 117 82 148 160 84 115 140 97 228 48 30 68 82 86 95 63 56 59 72 97 182 183 192 201 190 180 157 184 225 245 263 240 213
203 201 198 209 302 296 306 272 162 152 156 196 65 143 179 165 236 84 126 203 26 47 77 160 101 99 65 86 81 72 65 111 185 177 211 210 178 175 172 166 163 142 102 143 209
207 194 206 215 258 267 273 201 187 195 179 128 131 105 130 150 184 130 77 79 172 84 247 140 157 145 90 134 119 59 50 105 122 163 170 150 152 156 160 125 93 78 58 302 271
210 204 211 217 236 226 164 172 174 180 134 114 61 82 222 220 224 211 131 171 199 126 118 130 168 132 136 78 146 138 60 66 101 111 126 145 130 114 107 89 40 323 285 298 295
Height
3139 3138 3137 3136 3135 3134 3133 3133 3133 3133 3133 3135 3136 3137 3139 3141 3143 3144 3146 3150 3152 3153 3154 3154 3154 3152 3152 3152 3154 3158 3162 3164 3166 3169 3170 3171 3172 3177 3178 3178 3179 3180 3183 3182 3183
3137 3136 3135 3135 3134 3133 3132 3132 3132 3131 3132 3132 3134 3135 3137 3139 3141 3143 3145 3147 3150 3152 3154 3155 3156 3154 3155 3156 3158 3160 3161 3163 3165 3167 3170 3172 3174 3175 3178 3179 3180 3181 3183 3184 3186
3135 3135 3134 3133 3133 3132 3131 3131 3130 3130 3130 3131 3132 3133 3135 3137 3140 3141 3144 3147 3150 3151 3153 3153 3156 3157 3157 3160 3161 3162 3163 3165 3167 3167 3170 3173 3175 3177 3178 3180 3182 3181 3184 3186 3187
3134 3133 3133 3132 3132 3131 3130 3130 3129 3129 3129 3129 3130 3132 3133 3136 3141 3140 3143 3145 3148 3150 3153 3153 3156 3158 3159 3161 3162 3163 3164 3165 3166 3168 3171 3174 3175 3178 3179 3184 3183 3185 3187 3188 3189
3134 3133 3132 3132 3131 3130 3129 3129 3128 3127 3128 3128 3129 3130 3132 3135 3137 3138 3141 3144 3147 3151 3153 3154 3157 3159 3160 3162 3164 3163 3164 3165 3167 3168 3171 3172 3175 3177 3179 3184 3184 3186 3189 3190 3191
3134 3133 3132 3131 3131 3130 3129 3128 3127 3127 3127 3127 3127 3128 3130 3133 3134 3136 3139 3142 3145 3149 3153 3154 3158 3160 3160 3160 3160 3161 3161 3163 3166 3167 3170 3171 3174 3175 3179 3184 3185 3187 3189 3191 3193
3134 3133 3132 3131 3130 3129 3129 3128 3127 3126 3126 3126 3126 3127 3128 3131 3132 3136 3138 3141 3144 3148 3151 3155 3157 3159 3161 3159 3158 3160 3161 3161 3164 3166 3168 3170 3174 3174 3177 3182 3185 3187 3190 3192 3194
3134 3133 3132 3132 3131 3130 3129 3128 3127 3126 3125 3125 3125 3126 3127 3128 3132 3135 3138 3140 3143 3146 3149 3153 3155 3158 3160 3160 3160 3160 3161 3160 3163 3165 3166 3170 3170 3173 3176 3179 3184 3187 3190 3192 3194
3135 3133 3132 3132 3131 3130 3129 3128 3128 3127 3126 3125 3126 3126 3127 3129 3131 3133 3137 3139 3142 3144 3147 3150 3153 3156 3159 3159 3161 3160 3162 3163 3166 3164 3166 3170 3171 3172 3174 3177 3182 3186 3189 3191 3194
3135 3134 3133 3132 3131 3131 3130 3130 3129 3128 3127 3127 3127 3130 3130 3129 3129 3131 3134 3137 3139 3142 3146 3150 3153 3155 3157 3158 3159 3160 3163 3162 3159 3161 3158 3168 3170 3169 3171 3178 3180 3186 3189 3191 3193
3135 3133 3133 3132 3132 3132 3132 3131 3132 3131 3127 3128 3129 3129 3129 3129 3129 3130 3133 3136 3137 3140 3145 3149 3152 3154 3157 3159 3160 3160 3162 3162 3160 3160 3159 3162 3166 3166 3172 3176 3179 3183 3186 3189 3192
3134 3133 3133 3132 3132 3132 3132 3129 3130 3131 3130 3129 3130 3131 3131 3131 3131 3131 3133 3136 3137 3140 3144 3149 3150 3155 3155 3157 3159 3160 3160 3161 3161 3158 3158 3157 3159 3163 3168 3172 3178 3182 3185 3189 3192
3134 3133 3132 3132 3132 3132 3131 3132 3131 3131 3132 3132 3132 3132 3132 3133 3132 3133 3134 3136 3138 3140 3143 3146 3151 3153 3154 3156 3159 3158 3157 3158 3158 3160 3161 3160 3162 3165 3167 3170 3176 3179 3184 3188 3191
3134 3133 3133 3132 3135 3133 3133 3132 3132 3133 3134 3136 3134 3134 3134 3133 3134 3134 3135 3138 3139 3141 3144 3146 3149 3151 3152 3155 3160 3159 3159 3159 3157 3159 3160 3160 3163 3161 3164 3168 3172 3177 3181 3185 3188
3133 3133 3132 3133 3133 3134 3136 3134 3134 3134 3136 3138 3135 3135 3135 3137 3137 3136 3137 3138 3140 3141 3144 3146 3147 3150 3151 3153 3158 3160 3159 3159 3159 3160 3160 3160 3161 3157 3159 3162 3167 3172 3179 3182 3185
3132 3132 3133 3133 3134 3135 3135 3136 3136 3138 3136 3136 3136 3136 3137 3137 3137 3136 3137 3139 3141 3142 3142 3142 3143 3146 3149 3153 3155 3157 3161 3159 3159 3160 3159 3156 3159 3154 3153 3154 3164 3169 3173 3177 3182
3132 3133 3133 3133 3135 3135 3137 3138 3138 3136 3138 3138 3136 3136 3137 3137 3137 3136 3137 3139 3141 3142 3141 3140 3141 3142 3146 3151 3154 3154 3157 3159 3162 3159 3159 3157 3158 3152 3155 3158 3160 3163 3168 3173 3178
3132 3133 3134 3135 3135 3136 3138 3139 3138 3137 3137 3137 3137 3137 3137 3136 3136 3137 3138 3139 3139 3141 3141 3139 3141 3142 3142 3144 3149 3153 3153 3156 3162 3161 3157 3157 3154 3151 3151 3153 3156 3159 3165 3170 3174
3132 3133 3134 3136 3137 3138 3140 3139 3139 3138 3138 3137 3137 3136 3136 3135 3136 3137 3137 3137 3138 3140 3141 3139 3139 3139 3141 3142 3147 3149 3152 3152 3162 3160 3159 3156 3153 3148 3148 3151 3152 3155 3161 3166 3170
3132 3133 3135 3138 3138 3139 3140 3139 3139 3138 3138 3138 3137 3136 3136 3135 3135 3137 3137 3136 3137 3137 3137 3138 3139 3138 3141 3144 3147 3147 3150 3153 3165 3163 3157 3156 3154 3148 3148 3149 3150 3154 3158 3162 3164
3134 3134 3137 3138 3139 3141 3140 3139 3138 3136 3138 3139 3136 3136 3135 3134 3134 3137 3138 3137 3136 3135 3134 3135 3138 3140 3139 3140 3143 3146 3145 3148 3154 3155 3152 3156 3152 3148 3148 3150 3150 3154 3158 3160 3163
3134 3136 3137 3138 3141 3140 3140 3139 3140 3138 3138 3138 3138 3137 3137 3136 3136 3136 3137 3137 3136 3135 3134 3135 3136 3137 3139 3139 3141 3141 3142 3145 3148 3151 3150 3150 3149 3148 3148 3149 3150 3153 3155 3158 3159
3135 3136 3136 3137 3138 3138 3139 3138 3138 3138 3138 3138 3137 3138 3137 3137 3137 3137 3136 3136 3137 3136 3135 3135 3135 3136 3138 3141 3141 3141 3142 3142 3146 3146 3147 3149 3149 3147 3148 3150 3151 3153 3154 3155 3156
3135 3136 3136 3136 3136 3136 3136 3136 3138 3138 3137 3137 3137 3137 3138 3137 3137 3137 3138 3138 3138 3137 3137 3138 3137 3137 3139 3142 3144 3143 3142 3141 3143 3144 3145 3145 3146 3148 3149 3151 3152 3153 3153 3154 3158
3133 3134 3134 3135 3135 3135 3135 3136 3136 3137 3137 3137 3137 3137 3138 3139 3137 3137 3138 3138 3137 3137 3137 3138 3139 3140 3140 3142 3144 3141 3141 3139 3140 3141 3142 3143 3145 3147 3148 3150 3150 3152 3154 3155 3157
3131 3133 3134 3135 3135 3134 3133 3133 3135 3135 3137 3137 3137 3138 3138 3139 3138 3137 3138 3138 3139 3138 3141 3138 3140 3141 3144 3145 3143 3142 3143 3140 3139 3138 3140 3141 3144 3147 3149 3151 3153 3154 3154 3156 3157
3128 3130 3132 3134 3133 3133 3133 3134 3135 3134 3137 3137 3137 3138 3138 3139 3138 3138 3139 3140 3141 3140 3140 3140 3140 3140 3141 3145 3142 3145 3148 3145 3142 3141 3144 3146 3148 3149 3151 3152 3153 3154 3154 3154 3154